Flag for U.S.A. Weather past 2 weeks in Santa Rosa, California, U.S.A.

Now
63 °F

Sunny.


Feels Like: 63 °F
Forecast: 39 / 65 °F
Wind: No wind

Location: Santa Rosa Sonoma County Airport

Current Time: Jan 25, 2015 at 4:46:05 PM

Latest Report: Jan 25, 2015 at 3:53 PM


Visibility: 7 mi

Pressure: 29.99 "Hg

Humidity: 60%

Dew point: 49 °F

Location of Santa RosaLocation

Historic Weather in Santa Rosa — Graph

°F

Santa Rosa temperature yesterday

Maximum temperature yesterday: 64 °F (at 1:53 PM)
Minimum temperature yesterday: 39 °F (at 6:53 AM)
Average temperature yesterday: 50 °F

Past Weeks' High & Low Weather Summary

 TemperatureHumidityPressure
High70 °F (Jan 23, 2:53 PM)100% (Jan 11, 3:53 AM)30.37 "Hg (Jan 11, 3:53 AM)
Low34 °F (Jan 14, 6:53 AM)32% (Jan 13, 1:53 PM)29.93 "Hg (Jan 10, 4:53 PM)
Average49 °F89%30.18 "Hg
* Reported Jan 10 3:53 PM — Jan 25 3:53 PM, Santa Rosa, Weather by CustomWeather, © 2014

Note: Actual official high and low records may vary slightly from our data, if they occured in-between our weather recording intervals... More about our weather records

Advertising

Santa Rosa weather history for previous 24 hours

 ConditionsComfort  
Time TempWeatherWind HumidityBarometerVisibility
3:53 PM
Jan 25
63 °FSunny.No wind60%29.99 "Hg7 mi
2:53 PM62 °FSunny.No wind62%30.00 "Hg7 mi
1:53 PM58 °FSunny.3 mph70%30.02 "Hg7 mi
12:53 PM54 °FSunny.3 mph74%30.05 "Hg7 mi
12:00 PM48 °FFog.3 mph87%30.10 "Hg3 mi
10:53 AM44 °FFog.No wind100%30.11 "Hg1 mi
9:53 AM43 °FFog.No wind100%30.13 "Hg0 mi
8:53 AM42 °FFog.3 mph100%30.13 "Hg0 mi
7:53 AM43 °FFog.No wind97%30.13 "Hg0 mi
7:00 AM43 °FFog.No wind100%30.15 "Hg1 mi
5:53 AM43 °FFog.No wind97%30.11 "Hg1 mi
4:53 AM43 °FFog.3 mph100%30.11 "Hg1 mi
3:53 AM44 °FFog.No wind100%30.11 "Hg1 mi
2:53 AM41 °FFog.5 mph100%30.12 "Hg0 mi
1:53 AM42 °FFog.No wind92%30.12 "Hg4 mi
12:53 AM41 °FFog.No wind96%30.11 "Hg2 mi
11:53 PM
Jan 24
45 °FFog.No wind93%30.11 "Hg5 mi
10:53 PM46 °FFog.No wind89%30.11 "Hg5 mi
9:53 PM47 °FFog.No wind90%30.11 "Hg5 mi
8:53 PM48 °FFog.No wind89%30.10 "Hg6 mi
7:53 PM51 °FClear.No wind83%30.09 "Hg7 mi
6:53 PM52 °FClear.No wind80%30.09 "Hg7 mi
5:53 PM55 °FClear.5 mph74%30.07 "Hg8 mi
4:53 PM60 °FSunny.8 mph65%30.07 "Hg7 mi
Weather by CustomWeather, © 2014

See weather overviewHow to use our weather pages